Find Kosmos-874

NORAD ID: 9591 Int'l Des: 1976-118 Owner: GUKOSR Country: SU operational
LEOCIRCULAR

Current View

Loading 3D Globe...

About Kosmos-874

Kosmos-874 (NORAD 9591) is a satellite by GUKOSR of SU. It operates in LEO, CIRCULAR orbit

Upcoming Passes

Passes for default location (London). Set your location on the main map for personalized predictions.

Altitude History

Loading altitude history...

Two-Line Element Set

1 9591U 76118D 26194.51902285 -.00000004 00000-0 82613-4 0 9990
2 9591 74.0275 202.4118 0033191 352.0065 127.7778 12.44004009252278
Epoch: Jul 13, 2026 • Age: 12 hours

Current Status

Altitude 1503.8 km
Apogee / Perigee N/A
Velocity 7.12 km/s
Sub-Earth Point -67.66°S, 147.99°W
Type other

Most Searched